Home   Weather   Baltimore   Past weeks
Flag for USA

Past Weather in Baltimore, Maryland, USA — Yesterday and Last 2 Weeks

Now
80 °F

Partly sunny.


Feels Like: 83 °F
Forecast: 93 / 75 °F
Wind: 8 mph from Northwest

Location: Baltimore-Washington International Airport

Current Time: Jul 22, 2019 at 7:12:19 pm

Latest Report: Jul 22, 2019 at 5:54 pm


Visibility: 10 mi

Pressure: 29.75 "Hg

Humidity: 71%

Dew Point: 70 °F

Location of BaltimoreLocation

Past Weather in Baltimore — Graph

°F

Baltimore Temperature Yesterday

Maximum temperature yesterday: 99 °F (at 4:54 pm)
Minimum temperature yesterday: 80 °F (at 5:54 am)
Average temperature yesterday: 89 °F

High & Low Weather Summary for the Past Weeks

 TemperatureHumidityPressure
High99 °F (Jul 21, 4:54 pm)100% (Jul 12, 5:54 am)30.11 "Hg (Jul 12, 5:54 am)
Low65 °F (Jul 9, 2:54 am)36% (Jul 15, 2:54 pm)29.74 "Hg (Jul 22, 4:54 pm)
Average81 °F70%29.93 "Hg
* Reported Jul 7 5:54 pm — Jul 22 5:54 pm, Baltimore. Weather by CustomWeather, © 2019

Note: Actual official high and low records may vary slightly from our data, if they occured in-between our weather recording intervals... More about our weather records

Advertising

Baltimore Weather History for the Previous 24 Hours

Scroll right to see more
 ConditionsComfort  
Time TempWeatherWind HumidityBarometerVisibility
5:54 pm
Mon, Jul 22
80 °FPartly sunny.8 mph71%29.75 "Hg10 mi
4:54 pm79 °FBroken clouds.13 mph74%29.74 "Hg10 mi
4:14 pm79 °FBroken clouds.20 mph79%29.77 "Hg10 mi
3:54 pm86 °FThunderstorms. Partly sunny.13 mph70%29.75 "Hg6 mi
2:54 pm93 °FBroken clouds.10 mph47%29.74 "Hg10 mi
1:54 pm94 °FScattered clouds.9 mph48%29.76 "Hg10 mi
12:54 pm94 °FScattered clouds.9 mph46%29.79 "Hg10 mi
11:54 am92 °FPassing clouds.8 mph47%29.81 "Hg10 mi
10:54 am89 °FScattered clouds.5 mph52%29.82 "Hg10 mi
9:54 am87 °FScattered clouds.3 mph57%29.83 "Hg10 mi
8:54 am84 °FPassing clouds.No wind61%29.85 "Hg10 mi
7:54 am81 °FPassing clouds.3 mph69%29.85 "Hg10 mi
6:54 am76 °FScattered clouds.No wind85%29.85 "Hg10 mi
5:54 am74 °FPassing clouds.No wind88%29.86 "Hg10 mi
4:54 am75 °FPassing clouds.3 mph85%29.86 "Hg10 mi
3:54 am77 °FPassing clouds.No wind79%29.86 "Hg10 mi
2:54 am78 °FClear.No wind76%29.86 "Hg10 mi
1:54 am80 °FMostly cloudy.5 mph71%29.87 "Hg10 mi
12:54 am80 °FMostly cloudy.7 mph69%29.87 "Hg10 mi
11:54 pm
Sun, Jul 21
80 °FOvercast.9 mph69%29.88 "Hg10 mi
10:54 pm80 °FOvercast.7 mph67%29.88 "Hg10 mi
10:00 pm82 °FPartly cloudy.6 mph58%29.88 "Hg10 mi
8:54 pm87 °FThunderstorms. Partly cloudy.17 mph53%29.86 "Hg10 mi
7:54 pm94 °FBroken clouds.5 mph52%29.83 "Hg10 mi
Weather by CustomWeather, © 2019

See weather overview